GW3985 Weather Reports


time (UTC)temp
F
wind
direction
speed
knots
gust
knots
rain 1hr
in
rain 24hr
in
rain mn
in
humidity
%
barometer
mb
20260902234517 85 87 1.7 5.2 0.00 0.00 0.00 33 1020.1
20260902233515 86 90 1.7 3.5 0.00 0.00 0.00 32 1020.2
20260902232515 86 92 1.7 2.6 0.00 0.00 0.00 31 1020.2
20260902231515 86 98 0.9 3.5 0.00 0.00 0.00 32 1020.3
20260902230516 86 88 1.7 3.5 0.00 0.00 0.00 31 1020.4
20260902225516 87 103 0.9 2.6 0.00 0.00 0.00 30 1020.4
20260902224517 87 94 1.7 3.5 0.00 0.00 0.00 32 1020.6
20260902223517 87 93 1.7 3.5 0.00 0.00 0.00 31 1020.6
20260902222515 86 92 1.7 2.6 0.00 0.00 0.00 30 1020.8
20260902221515 87 101 1.7 2.6 0.00 0.00 0.00 29 1021.0
20260902220516 87 87 0.9 2.6 0.00 0.00 0.00 31 1021.1
20260902215516 86 88 0.9 3.5 0.00 0.00 0.00 32 1021.3
20260902214516 86 88 1.7 2.6 0.00 0.00 0.00 31 1021.5
20260902213617 87 87 1.7 3.5 0.00 0.00 0.00 30 1021.7
20260902212517 86 99 0.9 3.5 0.00 0.00 0.00 30 1021.8
20260902211515 87 99 0.9 2.6 0.00 0.00 0.00 31 1022.0
20260902210535 87 86 0.9 3.5 0.00 0.00 0.00 30 1022.1
20260902205516 88 95 0.9 2.6 0.00 0.00 0.00 29 1022.2
20260902204516 87 92 0.0 1.7 0.00 0.00 0.00 30 1022.4
20260902203536 89 91 0.9 1.7 0.00 0.00 0.00 29 1022.4
20260902202517 87 102 0.9 1.7 0.00 0.00 0.00 30 1022.5
20260902201517 88 91 0.9 1.7 0.00 0.00 0.00 29 1022.7
20260902200515 87 268 0.0 0.9 0.00 0.00 0.00 30 1022.8
20260902195515 86 92 0.9 1.7 0.00 0.00 0.00 30 1022.9
20260902194515 86 95 0.0 1.7 0.00 0.00 0.00 30 1023.0
20260902193516 87 159 0.0 1.7 0.00 0.00 0.00 30 1023.0
20260902192516 86 100 0.0 1.7 0.00 0.00 0.00 31 1023.1
20260902191517 85 294 0.0 1.7 0.00 0.00 0.00 30 1023.4
20260902190517 86 90 0.0 0.9 0.00 0.00 0.00 31 1023.5
20260902185515 86 301 0.9 3.5 0.00 0.00 0.00 32 1023.7
20260902184515 85 280 0.0 1.7 0.00 0.00 0.00 33 1023.8
20260902183516 84 114 0.0 1.7 0.00 0.00 0.00 32 1024.0
20260902182516 83 330 0.0 0.9 0.00 0.00 0.00 33 1024.1
20260902181556 82 2 0.0 1.7 0.00 0.00 0.00 34 1024.4
20260902180517 82 115 0.0 1.7 0.00 0.00 0.00 35 1024.5
20260902175557 81 102 0.9 1.7 0.00 0.00 0.00 35 1024.6
20260902174015 81 296 0.0 0.9 0.00 0.00 0.00 37 1024.8
20260902173016 80 334 0.0 0.9 0.00 0.00 0.00 37 1024.9
20260902172016 79 99 0.0 0.9 0.00 0.00 0.00 38 1024.9
20260902171016 79 255 0.0 1.7 0.00 0.00 0.00 39 1025.0
20260902170016 78 93 0.9 2.6 0.00 0.00 0.00 39 1025.1
20260902165017 78 93 0.0 1.7 0.00 0.00 0.00 41 1025.1
20260902164015 77 94 0.0 0.9 0.00 0.00 0.00 41 1025.1
20260902163015 77 267 0.0 1.7 0.00 0.00 0.00 42 1025.1
20260902162015 76 279 0.0 0.9 0.00 0.00 0.00 42 1025.2
20260902161016 75 0.0 0.0 0.00 0.00 0.00 44 1025.1
20260902160016 75 0.0 0.0 0.00 0.00 0.00 46 1025.2
20260902155017 74 129 0.0 0.9 0.00 0.00 0.00 45 1025.3
20260902154017 73 133 0.0 0.9 0.00 0.00 0.00 45 1025.5
20260902153015 71 132 0.0 0.9 0.00 0.00 0.00 48 1025.6
20260902152016 70 133 0.0 0.9 0.00 0.00 0.00 51 1025.5
20260902151016 69 133 0.0 0.9 0.00 0.00 0.00 54 1025.6
20260902150016 68 133 0.0 0.9 0.00 0.00 0.00 54 1025.6
20260902145016 68 133 0.0 0.9 0.00 0.00 0.00 55 1025.5
20260902144017 67 0.0 0.0 0.00 0.00 0.00 58 1025.6
20260902143015 66 0.0 0.0 0.00 0.00 0.00 55 1025.4
20260902142015 65 0.0 0.0 0.00 0.00 0.00 58 1025.2
20260902141015 64 0.0 0.0 0.00 0.00 0.00 59 1025.2
20260902140036 63 0.0 0.0 0.00 0.00 0.00 62 1025.2
20260902135016 62 0.0 0.0 0.00 0.00 0.00 65 1025.2
20260902134017 61 0.0 0.0 0.00 0.00 0.00 66 1025.3
20260902133017 60 139 0.0 0.9 0.00 0.00 0.00 67 1025.2
20260902132015 59 0.0 0.0 0.00 0.00 0.00 68 1025.1
20260902131035 59 0.0 0.0 0.00 0.00 0.00 69 1025.0
20260902130015 58 0.0 0.0 0.00 0.00 0.00 69 1024.8
20260902125016 59 139 0.0 0.9 0.00 0.00 0.00 69 1024.7
20260902124016 59 0.0 0.0 0.00 0.00 0.00 68 1024.7
20260902123017 60 0.0 0.0 0.00 0.00 0.00 67 1024.5
20260902122017 60 0.0 0.0 0.00 0.00 0.00 67 1024.5
20260902121015 60 0.0 0.0 0.00 0.00 0.00 66 1024.4
20260902120015 60 139 0.0 0.9 0.00 0.00 0.00 67 1024.4
20260902115035 61 0.0 0.0 0.00 0.00 0.00 68 1024.3
20260902114016 61 139 0.0 0.9 0.00 0.00 0.00 65 1024.1
20260902113016 61 139 0.0 0.9 0.00 0.00 0.00 65 1024.1
20260902112017 61 140 0.0 1.7 0.00 0.00 0.00 65 1024.1
20260902111017 61 140 0.0 0.9 0.00 0.00 0.00 64 1024.0
20260902110015 61 141 0.9 1.7 0.00 0.00 0.00 64 1024.0
20260902105015 61 143 0.0 1.7 0.00 0.00 0.00 65 1024.0
20260902104036 60 139 0.9 2.6 0.00 0.00 0.00 67 1024.0
20260902103016 60 0.0 0.0 0.00 0.00 0.00 68 1023.9
20260902102017 60 0.0 0.0 0.00 0.00 0.00 67 1023.9
20260902101017 61 0.0 0.0 0.00 0.00 0.00 66 1024.0
20260902100014 61 0.0 0.0 0.00 0.00 0.00 66 1024.0
20260902095015 60 0.0 0.0 0.00 0.00 0.00 68 1024.1
20260902094015 60 0.0 0.0 0.00 0.00 0.00 69 1024.1
20260902093036 61 0.0 0.0 0.00 0.00 0.00 68 1024.0
20260902092016 61 0.0 0.0 0.00 0.00 0.00 68 1024.0
20260902091016 62 0.0 0.0 0.00 0.00 0.00 66 1024.0
20260902090017 63 0.0 0.0 0.00 0.00 0.00 65 1024.0
20260902085015 63 0.0 0.0 0.00 0.00 0.00 64 1023.9
20260902084015 64 0.0 0.0 0.00 0.00 0.00 63 1024.0
20260902083016 64 154 0.0 0.9 0.00 0.00 0.00 62 1024.0
20260902082016 65 136 0.0 1.7 0.00 0.00 0.00 62 1024.0
20260902081016 64 133 0.9 1.7 0.00 0.00 0.00 62 1024.1
20260902080037 64 133 0.9 2.6 0.00 0.00 0.00 61 1024.1
20260902075037 65 133 0.0 0.9 0.00 0.00 0.00 60 1024.2
20260902074015 65 133 0.0 1.7 0.00 0.00 0.00 59 1024.2
20260902073015 64 133 0.9 1.7 0.00 0.00 0.00 59 1024.1
20260902072015 65 133 0.0 0.9 0.00 0.00 0.00 59 1024.1
20260902071016 65 133 0.0 0.9 0.00 0.00 0.00 59 1024.0
20260902070036 65 133 0.0 0.9 0.00 0.00 0.00 60 1024.1
20260902065017 66 133 0.0 0.9 0.00 0.00 0.00 61 1024.1
20260902064017 66 133 0.0 0.9 0.00 0.00 0.00 60 1024.1
20260902063035 66 133 0.0 0.9 0.00 0.00 0.00 59 1024.1
20260902062015 66 127 0.0 0.9 0.00 0.00 0.00 59 1024.0
20260902061016 66 139 0.0 0.9 0.00 0.00 0.00 61 1024.0
20260902060016 67 139 0.0 1.7 0.00 0.00 0.00 63 1024.0
20260902055016 67 140 0.0 1.7 0.00 0.00 0.00 63 1023.9
20260902054037 68 139 0.0 1.7 0.00 0.00 0.00 62 1023.9
20260902053017 68 135 0.9 2.6 0.00 0.00 0.00 61 1023.9
20260902052015 68 141 1.7 3.5 0.00 0.00 0.00 60 1023.9
20260902051015 69 140 0.9 3.5 0.00 0.00 0.00 59 1023.9
20260902050016 69 146 0.9 4.3 0.00 0.00 0.00 58 1023.9
20260902045016 69 137 1.7 3.5 0.00 0.00 0.00 57 1023.9
20260902044016 69 141 1.7 3.5 0.00 0.00 0.00 56 1024.0
20260902043017 69 135 0.9 3.5 0.00 0.00 0.00 56 1024.1
20260902042035 70 140 0.9 3.5 0.00 0.00 0.00 56 1024.2
20260902041015 70 138 1.7 3.5 0.00 0.00 0.00 55 1024.2
20260902040015 71 137 1.7 6.1 0.00 0.00 0.00 55 1024.2
20260902035016 71 139 0.9 3.5 0.00 0.00 0.00 54 1024.2
20260902034016 72 140 0.9 4.3 0.00 0.00 0.00 54 1024.2
20260902033017 72 148 0.9 2.6 0.00 0.00 0.00 53 1024.1
20260902032017 73 140 0.9 3.5 0.00 0.00 0.00 53 1023.9
20260902031015 73 137 1.7 5.2 0.00 0.00 0.00 52 1023.9
20260902030015 74 131 1.7 6.1 0.00 0.00 0.00 51 1023.8
20260902025016 74 141 1.7 6.1 0.00 0.00 0.00 51 1023.5
20260902024016 73 136 1.7 5.2 0.00 0.01 0.00 51 1023.2
20260902023016 72 86 0.0 0.9 0.00 0.01 0.00 54 1023.0
20260902022017 72 0.0 0.0 0.00 0.01 0.00 53 1023.1
20260902021017 73 0.0 0.0 0.00 0.01 0.00 52 1023.0
20260902020015 73 86 0.0 0.9 0.00 0.01 0.00 52 1023.0
20260902015035 74 86 0.0 0.9 0.00 0.01 0.00 51 1022.9
20260902014016 75 0.0 0.0 0.00 0.01 0.00 50 1022.9
20260902013016 75 0.0 0.0 0.00 0.01 0.00 49 1022.9
20260902012016 76 0.0 0.0 0.00 0.01 0.00 47 1022.9
20260902011017 77 86 0.0 0.9 0.00 0.01 0.00 45 1022.9
20260902010037 77 84 0.0 0.9 0.00 0.01 0.00 43 1022.8
20260902005035 78 0.0 0.0 0.00 0.01 0.00 42 1022.8
20260902004015 79 70 0.0 0.9 0.00 0.01 0.00 41 1022.8
20260902003016 80 99 0.0 0.9 0.00 0.01 0.00 41 1022.8
20260902002016 81 0.0 0.0 0.00 0.01 0.00 39 1022.8
20260902001016 81 45 0.0 0.9 0.00 0.01 0.00 38 1022.9
20260902000017 82 39 0.0 4.3 0.00 0.01 0.00 37 1022.9